Voltar ao catálogo

FREGAT DEB

LostUNKNOWN
NORAD 45972·DEBRIS·🇷🇺 Russia

Lançado Jul 18, 2011 de Baikonur Cosmodrome

Loading…

Próximas Passagens (próximas 24 horas)

TLE

ObsoletoSource: Space-Track

Época: Jul 6, 2021, 16:37 UTC

1 45972U 11037GD  21187.69258633 -.00002237  00000-0 -11208-1 0  9999
2 45972  51.6152 291.1162 1771020 154.8669 215.0083 10.40004735 36088

Acompanhe FREGAT DEB em tempo real com AllMySat

Download on the App Store